EW0401 Weather Reports


time (UTC)temp
F
wind
direction
speed
knots
gust
knots
rain 1hr
in
rain 24hr
in
rain mn
in
humidity
%
barometer
mb
20260904134615 82 0 0.0 1.7 0.00 0.77 0.14 89 1015.0
20260904133103 80 0 0.0 1.7 0.00 0.77 0.14 91 1014.8
20260904131627 78 0 0.0 0.0 0.00 0.77 0.14 92 1014.7
20260904130103 77 0 0.0 0.0 0.00 0.77 0.14 91 1014.9
20260904124613 77 0 0.0 0.0 0.00 0.84 0.14 91 1014.8
20260904123116 77 0 0.0 0.0 0.00 0.84 0.14 91 1014.5
20260904121559 77 0 0.0 0.0 0.00 0.84 0.14 90 1014.1
20260904114604 77 0 0.0 0.0 0.02 0.84 0.14 90 1013.9
20260904113122 77 226 0.0 0.0 0.11 0.84 0.14 90 1013.5
20260904113100 77 0 0.0 0.0 0.11 0.84 0.14 90 1014.0
20260904113040 78 226 0.0 0.0 0.11 0.84 0.14 90 1013.6
20260904112521 78 226 0.0 0.0 0.14 0.84 0.14 90 1013.6
20260904111606 77 0 0.0 0.0 0.14 0.84 0.14 89 1013.9
20260904110104 78 0 0.0 0.0 0.14 0.84 0.14 89 1013.9
20260904104606 79 0 0.0 0.0 0.12 0.82 0.12 88 1014.1
20260904103101 81 0 0.0 1.7 0.02 0.72 0.02 89 1014.0
20260904101559 81 0 0.0 0.0 0.00 0.70 0.00 89 1013.8
20260904100109 81 0 0.0 0.0 0.00 0.70 0.00 88 1013.4
20260904094612 81 0 0.0 0.0 0.00 0.70 0.00 88 1013.4
20260904093057 82 0 0.0 0.0 0.00 0.70 0.00 88 1013.4
20260904091557 82 0 0.0 0.0 0.00 0.70 0.00 88 1013.4
20260904090107 82 0 0.0 0.0 0.00 0.70 0.00 87 1013.3
20260904084600 82 0 0.0 0.0 0.00 0.70 0.00 87 1013.3
20260904083148 82 0 0.0 0.0 0.00 0.70 0.00 87 1013.2
20260904081609 82 0 0.0 0.0 0.00 0.70 0.00 87 1013.2
20260904080104 83 0 0.0 0.0 0.00 0.70 0.00 86 1013.3
20260904074559 83 0 0.0 1.7 0.00 0.70 0.00 86 1013.4
20260904073101 83 0 0.0 0.0 0.00 0.70 0.00 86 1013.4
20260904071623 83 0 0.0 0.9 0.00 0.70 0.00 86 1013.4
20260904070118 83 0 0.0 3.5 0.00 0.70 0.00 86 1013.5
20260904064604 83 0 0.0 1.7 0.00 0.70 0.00 86 1013.5
20260904063112 83 0 0.0 0.9 0.00 0.70 0.00 86 1013.5
20260904061616 83 0 0.0 2.6 0.00 0.70 0.00 86 1013.5
20260904060107 82 0 0.0 0.0 0.00 0.70 0.00 87 1013.6
20260904054605 82 0 0.0 1.7 0.00 0.70 0.00 87 1013.6
20260904053107 82 0 0.0 1.7 0.00 0.70 0.00 87 1013.3
20260904051600 82 0 0.0 0.0 0.00 0.70 0.00 88 1013.5
20260904050105 82 0 0.0 0.9 0.00 0.70 0.00 88 1013.5
20260904044559 82 0 0.0 1.7 0.00 0.70 0.70 88 1013.6
20260904043104 82 0 0.0 0.0 0.00 0.70 0.70 88 1013.7
20260904041601 82 0 0.0 0.0 0.00 0.70 0.70 88 1013.8
20260904040110 82 0 0.0 0.0 0.00 0.70 0.70 88 1013.9
20260904034600 82 0 0.0 0.0 0.00 0.70 0.70 87 1013.8
20260904033100 82 0 0.0 0.0 0.00 0.70 0.70 87 1013.8
20260904031610 82 0 0.0 0.0 0.00 0.70 0.70 87 1013.8
20260904030107 82 0 0.0 0.9 0.00 0.70 0.70 87 1013.8
20260904024604 82 0 0.0 1.7 0.00 0.70 0.70 87 1013.8
20260904023059 83 0 0.0 0.0 0.00 0.70 0.70 87 1013.7
20260904021557 83 0 0.0 0.0 0.00 0.70 0.70 87 1013.6
20260904020104 83 0 0.0 0.0 0.00 0.70 0.70 86 1013.6
20260904014608 83 0 0.0 0.9 0.00 0.70 0.70 86 1013.4
20260904013103 83 0 0.0 0.0 0.00 0.70 0.70 86 1013.2
20260904011605 84 0 0.0 0.0 0.00 0.70 0.70 85 1013.1
20260904010106 84 0 0.0 1.7 0.00 0.70 0.70 85 1012.9
20260904004607 85 0 0.0 1.7 0.00 0.70 0.70 84 1013.0
20260904003059 85 0 0.0 1.7 0.00 0.70 0.70 83 1013.0
20260904001608 86 0 0.0 1.7 0.00 0.70 0.70 83 1012.9
20260904000110 86 0 0.0 2.6 0.00 0.70 0.70 80 1012.9
20260903234605 87 0 0.0 1.7 0.00 0.70 0.70 79 1012.9
20260903233103 87 279 0.0 1.7 0.00 0.70 0.70 77 1012.8
20260903231559 87 0 0.0 3.5 0.00 0.70 0.70 76 1012.7
20260903230105 88 0 0.0 6.1 0.00 0.70 0.70 77 1012.7
20260903224558 89 206 0.0 3.5 0.01 0.70 0.70 76 1012.9
20260903223100 89 0 0.0 2.6 0.01 0.70 0.70 75 1013.0
20260903221602 89 0 0.0 5.2 0.01 0.70 0.70 75 1013.1
20260903220107 90 180 0.0 2.6 0.01 0.70 0.70 75 1013.5
20260903214614 89 0 0.0 2.6 0.00 0.69 0.69 74 1013.6
20260903213100 89 0 0.0 2.6 0.00 0.69 0.69 74 1013.7
20260903211611 89 0 0.0 0.0 0.00 0.69 0.69 73 1013.9
20260903210104 89 0 0.0 2.6 0.00 0.69 0.69 75 1013.7
20260903204603 89 0 0.0 3.5 0.00 0.69 0.69 75 1013.9
20260903203102 88 80 0.9 3.5 0.00 0.69 0.69 77 1014.1
20260903201609 88 0 0.0 3.5 0.00 0.69 0.69 78 1014.4
20260903194603 87 0 0.9 5.2 0.00 0.69 0.69 79 1014.3
20260903193103 88 0 0.9 5.2 0.00 0.69 0.69 79 1014.4
20260903191601 89 0 0.9 4.3 0.00 0.69 0.69 76 1014.4
20260903190111 90 53 0.0 2.6 0.00 0.69 0.69 74 1014.5
20260903184606 90 0 0.0 5.2 0.00 0.69 0.69 76 1014.6
20260903183103 89 0 0.0 2.6 0.00 0.69 0.69 79 1014.4
20260903181604 88 0 0.0 1.7 0.00 0.69 0.69 78 1014.6
20260903180109 88 0 0.0 1.7 0.00 0.69 0.69 78 1015.1
20260903174602 88 0 0.0 3.5 0.00 0.69 0.69 78 1015.3
20260903173102 89 0 0.0 2.6 0.00 0.69 0.69 78 1015.3
20260903171607 89 0 0.0 1.7 0.00 0.69 0.69 77 1015.4
20260903170107 89 0 0.0 0.0 0.00 0.69 0.69 80 1015.5
20260903164609 86 0 0.0 1.7 0.00 0.69 0.69 87 1015.7
20260903163101 83 0 0.0 2.6 0.00 0.69 0.69 88 1015.6
20260903161605 82 0 0.0 1.7 0.00 0.69 0.69 91 1015.5
20260903160109 82 207 0.0 0.0 0.01 0.69 0.69 93 1015.2
20260903154608 81 0 0.0 0.9 0.01 0.69 0.69 93 1015.1
20260903153130 79 0 0.0 0.0 0.03 0.69 0.69 93 1015.2
20260903151616 77 0 0.0 0.0 0.05 0.69 0.69 92 1015.2
20260903150121 76 0 0.0 0.0 0.05 0.68 0.68 92 1015.3
20260903144606 76 0 0.0 0.0 0.05 0.68 0.68 91 1015.4
20260903143108 75 0 0.0 0.9 0.09 0.66 0.66 91 1015.4
20260903141606 75 0 0.0 0.0 0.29 0.64 0.64 91 1015.7
20260903140104 75 0 0.0 0.0 0.54 0.63 0.63 90 1015.6